Location: Jodlow
(50.1500°N, 16.7500°E)
Time: 05:32:38
(UTC+02:00)

PCSat - Visible Passes

Search period start: 29 March 2023 00:00
Search period end: 08 April 2023 00:00
Orbit: 784 x 794 km, 67.1° (Epoch: 28 March)

Date Brightness Start Highest point End Pass type
(mag) Time Alt. Az. Time Alt. Az. Time Alt. Az.
29 Mar 11.7 01:30:36 10° NW 01:32:08 19° NW 01:32:08 19° NW visible
29 Mar 12.0 19:46:01 10° WNW 19:49:34 17° NNW 19:53:08 10° NNE visible
29 Mar 12.0 21:32:36 10° NNW 21:35:13 13° N 21:37:51 10° NE visible
29 Mar 11.3 23:16:11 10° NNW 23:20:36 24° NNE 23:20:52 24° NE visible
30 Mar 11.4 00:59:17 10° NW 01:01:32 26° NW 01:01:32 26° NW visible
30 Mar 12.0 21:01:00 10° NNW 21:03:31 13° N 21:06:03 10° NNE visible
30 Mar 11.4 22:44:55 10° NNW 22:49:01 21° NNE 22:50:18 20° NE visible
31 Mar 11.1 00:27:59 10° NNW 00:30:58 33° NNW 00:30:58 33° NNW visible
31 Mar 12.0 20:29:17 10° NNW 20:31:50 13° N 20:34:23 10° NNE visible
31 Mar 11.6 22:13:40 10° NNW 22:17:26 19° NNE 22:19:43 15° NE visible
31 Mar 10.8 23:56:43 10° NNW 00:00:24 39° N 00:00:24 39° N visible
01 Apr 12.0 01:40:26 10° NW 01:41:05 13° NW 01:41:05 13° NW visible
01 Apr 12.0 19:57:26 10° NW 20:00:07 14° N 20:02:49 10° NNE visible
01 Apr 11.8 21:42:23 10° NNW 21:45:48 17° NNE 21:49:10 10° ENE visible
01 Apr 10.6 23:25:27 10° NNW 23:29:51 40° NNE 23:29:51 40° NNE visible
02 Apr 11.7 01:08:56 10° NW 01:10:32 19° NW 01:10:32 19° NW visible
02 Apr 11.9 21:11:02 10° NNW 21:14:09 15° NNE 21:17:15 10° NE visible
02 Apr 10.7 22:54:12 10° NNW 22:59:10 35° NE 22:59:19 34° NE visible
03 Apr 11.3 00:37:31 10° NW 00:40:00 27° NW 00:40:00 27° NW visible
03 Apr 11.9 20:39:38 10° NNW 20:42:28 14° N 20:45:18 10° NE visible
03 Apr 10.9 22:22:58 10° NNW 22:27:41 29° NE 22:28:48 27° ENE visible
04 Apr 10.8 00:06:09 10° NW 00:09:28 38° NW 00:09:28 38° NW visible
04 Apr 11.9 20:08:09 10° NNW 20:10:47 13° N 20:13:24 10° NE visible
04 Apr 11.2 21:51:44 10° NNW 21:56:09 24° NNE 21:58:18 19° ENE visible
04 Apr 10.2 23:34:49 10° NW 23:38:58 53° NNW 23:38:58 53° NNW visible
05 Apr 12.1 01:19:21 10° WNW 01:19:39 11° WNW 01:19:39 11° WNW visible
05 Apr 11.4 21:20:28 10° NNW 21:24:34 21° NNE 21:27:48 13° ENE visible
05 Apr 9.8 23:03:31 10° NNW 23:08:29 64° NNE 23:08:29 64° NNE visible
06 Apr 11.7 00:47:35 10° WNW 00:49:10 17° WNW 00:49:10 17° WNW visible
06 Apr 11.5 20:49:12 10° NNW 20:52:58 19° NNE 20:56:44 10° ENE visible
06 Apr 9.9 22:32:14 10° NNW 22:37:34 53° NE 22:38:01 52° ENE visible
07 Apr 11.3 00:15:58 10° NW 00:18:42 25° WNW 00:18:42 25° WNW visible
07 Apr 11.6 20:17:54 10° NNW 20:21:20 17° NNE 20:24:46 10° ENE visible
07 Apr 10.3 22:00:59 10° NNW 22:06:10 42° NE 22:07:34 35° E visible
07 Apr 10.7 23:44:28 10° NW 23:48:15 36° W 23:48:15 36° W visible
